Location: Eppenbrunn
(49.1158°N, 7.5601°E)
Time: 15:51:38
(UTC+00:00)

Cosmos 2322 Rocket - Pass Details

Date: 09 April 2020
Orbit: 834 x 849 km, 71.0° (Epoch: 02 June)

Event Time Altitude Azimuth Distance (km) Brightness Sun altitude
Rises 21:34:09 0° 334° (NNW) 3,407 6.6 -27.4°
Reaches altitude 10° 21:36:52 10° 345° (NNW) 2,466 5.5 -27.6°
Maximum altitude 21:41:56 33° 48° (NE) 1,393 3.3 -28.1°
Enters shadow 21:42:26 32° 59° (ENE) 1,408 3.3 -28.1°
